Tracking 29892 objects as of 21-Nov-2024
HD Live streaming from Space Station
objects crossing your sky now

STARLINK-3391

Track STARLINK-3391 now!
10-day predictions
STARLINK-3391 is classified as:


NORAD ID: 51117
Int'l Code: 2022-005P
Perigee: 545.7 km
Apogee: 548.1 km
Inclination: 53.2 °
Period: 95.4 minutes
Semi major axis: 6917 km
RCS: Unknown
Launch date: January 19, 2022
Source: United States (US)
Launch site: AIR FORCE EASTERN TEST RANGE (AFETR)
Your satellite tracking list
Your tracking list is empty




NASA's NSSDC Master Catalog

Two Line Element Set (TLE):
1 51117U 22005P   24325.83964208  .00001349  00000-0  10284-3 0  9995
2 51117  53.2158 256.1939 0001738 108.3978 251.7203 15.08837538158452
Source of the keplerian elements: AFSPC